Location: Roanoke
(37.2710°N, 79.9420°W)
Time: 17:15:35
(UTC-04:00)

Cosmos 1441 Rocket - Visible Passes

Search period start: 19 April 2015 00:00
Search period end: 29 April 2015 00:00
Orbit: 502 x 552 km, 81.1° (Epoch: 18 April)

Date Brightness Start Highest point End Pass type
(mag) Time Alt. Az. Time Alt. Az. Time Alt. Az.
19 Apr 5.8 22:55:06 10° N 22:56:06 18° N 22:56:06 18° N visible
20 Apr 5.4 22:43:40 10° N 22:45:05 22° N 22:45:05 22° N visible
21 Apr 5.0 22:32:14 10° N 22:34:04 27° N 22:34:04 27° N visible
22 Apr 4.5 22:20:46 10° N 22:23:04 34° N 22:23:04 34° N visible
23 Apr 4.0 22:09:19 10° N 22:12:05 43° NNE 22:12:05 43° NNE visible
24 Apr 3.6 21:57:51 10° N 22:01:07 50° NE 22:01:07 50° NE visible
25 Apr 3.4 21:46:23 10° N 21:50:08 51° ENE 21:50:11 51° E visible
26 Apr 3.5 21:34:56 10° N 21:38:38 46° ENE 21:39:17 42° ESE visible
27 Apr 3.7 21:23:27 10° N 21:27:08 42° ENE 21:28:24 31° SE visible
27 Apr 6.2 23:02:02 10° WNW 23:02:54 10° W 23:03:32 10° W visible
28 Apr 3.8 21:11:58 10° N 21:15:36 39° ENE 21:17:33 23° SE visible
28 Apr 6.1 22:49:58 10° WNW 22:51:25 11° W 22:52:38 10° WSW visible
